User: anonymous   Login
Location: Unspecified
(0.0000°N, 0.0000°E)
Time: 01:04:34
(UTC+00:00)
Language:

METEOR-M - Orbit

View from above orbital plane
View from above orbital plane
View from above satellite
View from above satellite

Ground track
Ground track

The orbit data is extracted from the following two-line orbital elements,

1 35865U 09049A   16205.53132357  .00000001  00000-0  19072-4 0  9996
2 35865  98.4536 235.3552 0003136  48.0431 312.1014 14.22073807355382
Epoch (UTC): 23 July 2016 12:45:06
Eccentricity: 0.0003136
inclination: 98.4536°
perigee height: 816 km
apogee height: 820 km
right ascension of ascending node: 235.3552°
argument of perigee: 48.0431°
revolutions per day: 14.22073807
mean anomaly at epoch: 312.1014°
orbit number at epoch: 35538

The dashed part of the orbit path shows where the satellite is in the earth's shadow,  

DLR